Location: Stoke Bliss
(52.2667°N, 2.5167°W)
Time: 00:50:56
(UTC+00:00)

NOSS 3-3 (A) - Pass Details

Date: 03 March 2021
Orbit: 816 x 1396 km, 63.4° (Epoch: 19 March)

Event Time Altitude Azimuth Distance (km) Brightness Sun altitude
Rises 20:05:34 0° 312° (NW) 3,861 8.3 -20.8°
Reaches altitude 10° 20:08:05 10° 314° (NW) 2,983 7.4 -21.2°
Maximum altitude 20:15:20 74° 40° (NE) 1,274 4.4 -22.2°
Enters shadow 20:18:42 39° 117° (ESE) 1,836 4.9 -22.7°
